Regional Weather Roundup
Issued by NWS

Home | Current Version | Previous Version | Graphics & Text | Print | Product List | Glossary On
Versions: 1 2 3 4 5 6 7 8 9 10 11 12 13 14 15 16 17 18 19 20 21 22 23 24 25 26 27 28 29 30 31 32 33 34 35 36 37 38 39 40 41 42 43 44 45 46 47 48 49 50
602
ASUS45 KCYS 251610
RWRWY

WYOMING REGIONAL WEATHER ROUNDUP
NATIONAL WEATHER SERVICE CHEYENNE WY
1000 AM MDT MON SEP 25 2017

NOTE:  "FAIR" INDICATES FEW OR NO CLOUDS BELOW 12,000 FEET
WITH NO SIGNIFICANT WEATHER AND/OR OBSTRUCTIONS TO VISIBILITY.

WYZ001-251700-
YELLOWSTONE NATIONAL PARK

CITY           SKY/WX    TMP DP  RH WIND       PRES   REMARKS
LK YELLOWSTONE NOT AVBL
W YELLOWSTONE  NOT AVBL

$$
WYZ002>013-054>058-071-098>099-251700-
NORTHERN WYOMING

CITY           SKY/WX    TMP DP  RH WIND       PRES   REMARKS
JACKSON        CLOUDY    38  35  89 S3        30.14S
CODY           FAIR      43  36  76 SW8       30.13R
GREYBULL       CLOUDY    44  42  93 E5        30.12S
WORLAND        CLOUDY    46  39  76 CALM      30.12S
SHERIDAN       LGT RAIN  45  41  86 CALM      30.12S
BUFFALO        CLOUDY    42  36  79 N6        30.12S
GILLETTE       CLOUDY    43  39  86 N3        30.12S
HULETT         CLOUDY    43  37  81 W3        30.14S
NEWCASTLE      CLOUDY    43  41  93 S6        30.15S

$$
WYZ014>020-022>026-101>103-251700-
CENTRAL WYOMING

CITY           SKY/WX    TMP DP  RH WIND       PRES   REMARKS
BIG PINEY      CLOUDY    36  34  92 NW5       30.15R WCI  32
PINEDALE       CLOUDY    36  34  93 W7        30.15R WCI  30
DUBOIS         FLURRIES  34  32  93 CALM      30.12R
LANDER           N/A     43  37  79 SE3       30.12S
RIVERTON       CLOUDY    40  37  89 SW7       30.13S
CASPER         CLOUDY    39  37  92 W5        30.12R
DOUGLAS        CLOUDY    42  38  85 CALM      30.12F

$$
WYZ021-027>030-104>119-251700-
SOUTHERN WYOMING

CITY           SKY/WX    TMP DP  RH WIND       PRES   REMARKS
EVANSTON       CLOUDY    37  34  89 W5        30.17R WCI  33
FORT BRIDGER   PTSUNNY   41  37  87 W10       30.19R
ROCK SPRINGS   CLOUDY    36  34  92 SW7       30.14R WCI  30
DIXON          PTSUNNY   42  34  74 CALM      30.16S
RAWLINS        CLOUDY    39  32  76 W12       30.12F WCI  32
SARATOGA       PTSUNNY   41  32  70 N6        30.13S
LARAMIE        FAIR      36  34  92 W6        30.11R WCI  31
CHEYENNE       FAIR      42  36  79 CALM      30.12S
TORRINGTON     CLOUDY    44  41  89 E5        30.12S
PINE BLUFFS    CLOUDY    41  39  93 MISG      30.14R

$$




USA.gov is the U.S. government's official web portal to all federal, state and local government web resources and services.